Weather History for KBIE - January, 2014

Change the Weather History Date:

Friday, January 24, 2014

  Actual Average Record
Temperature  
Mean Temperature 32 °F -  
Max Temperature 53 °F 40 °F 70 °F (1981)
Min Temperature 11 °F 20 °F -8 °F (1963)
Degree Days  
Heating Degree Days 33    
Moisture  
Dew Point 13 °F    
Average Humidity 45    
Maximum Humidity 65    
Minimum Humidity 29    
Precipitation  
Precipitation 0.00 in - - ()
Sea Level Pressure  
Sea Level Pressure 30.04 in    
Wind  
Wind Speed 15 mph (WSW)    
Max Wind Speed 22 mph    
Max Gust Speed 30 mph    
Visibility 10 miles    
Events      
Averages and records for this station are not official NWS values.
T = Trace of Precipitation, MM = Missing Value Source: NWS Daily Summary

Daily Weather History Graph

Daily Weather History Graph

Search for Another Location

Airport or City:

Trip Planner

Search our weather history database for the weather conditions in past years. The results will help you decide how hot, cold, wet, or windy it might be!

Date:

Astronomy

Jan. 24, 2014 Rise Set
Actual Time 7:42 AM CST 5:35 PM CST
Civil Twilight 7:13 AM CST 6:05 PM CST
Nautical Twilight 6:40 AM CST 6:38 PM CST
Astronomical Twilight 6:08 AM CST 7:10 PM CST
Moon 1:11 AM CST (1/24) 11:55 AM CST (1/24)
Length of Visible Light 10h 51m
Length of Day
9h 53m
Last Quarter, 44% of the Moon is Illuminated
Jan 24
Last Quarter
Jan 30
New
Feb 6
First Quarter
Feb 14
Full
Feb 22
Last Quarter

Hourly Weather History & Observations

Time (CST) Temp. Windchill Dew Point Humidity Pressure Visibility Wind Dir Wind Speed Gust Speed Precip Events Conditions
12:15 AM 11.7 °F -3.8 °F -7.8 °F 42% 30.49 in 10.0 mi SSW 13.8 mph 19.6 mph N/A   Clear
12:35 AM 12.2 °F -4.3 °F -8.0 °F 40% 30.47 in 10.0 mi SSW 16.1 mph - N/A   Clear
12:55 AM 11.8 °F -3.0 °F -7.6 °F 42% 30.46 in 10.0 mi SSW 12.7 mph - N/A   Clear
1:15 AM 12.2 °F -3.1 °F -7.6 °F 41% 30.45 in 10.0 mi SW 13.8 mph - N/A   Clear
1:35 AM 12.4 °F -2.9 °F -7.4 °F 41% 30.43 in 10.0 mi SW 13.8 mph - N/A   Clear
1:55 AM 12.7 °F -2.5 °F -7.6 °F 40% 30.42 in 10.0 mi SW 13.8 mph - N/A   Clear
2:15 AM 13.1 °F -0.7 °F -6.7 °F 41% 30.42 in 10.0 mi SW 11.5 mph 18.4 mph N/A   Clear
2:35 AM 13.1 °F -0.7 °F -5.3 °F 44% 30.40 in 10.0 mi SSW 11.5 mph - N/A   Clear
2:55 AM 13.1 °F -1.4 °F -4.0 °F 47% 30.37 in 10.0 mi SSW 12.7 mph - N/A   Clear
3:15 AM 12.6 °F -1.4 °F -3.3 °F 49% 30.37 in 10.0 mi SW 11.5 mph - N/A   Clear
3:35 AM 12.6 °F -0.6 °F -1.8 °F 53% 30.35 in 10.0 mi SSW 10.4 mph - N/A   Clear
3:55 AM 12.9 °F -0.9 °F -0.8 °F 54% 30.32 in 10.0 mi SSW 11.5 mph - N/A   Clear
4:15 AM 13.8 °F -1.1 °F 0.1 °F 55% 30.30 in 10.0 mi SW 13.8 mph - N/A   Clear
4:35 AM 14.0 °F -0.8 °F 1.0 °F 56% 30.28 in 10.0 mi SSW 13.8 mph - N/A   Clear
4:55 AM 14.5 °F -0.7 °F 2.1 °F 58% 30.26 in 10.0 mi SW 15.0 mph - N/A   Clear
5:15 AM 14.9 °F -0.8 °F 2.8 °F 59% 30.24 in 10.0 mi SSW 16.1 mph - N/A   Clear
5:35 AM 15.4 °F -0.1 °F 3.7 °F 60% 30.23 in 10.0 mi SW 16.1 mph - N/A   Clear
5:55 AM 16.2 °F -0.2 °F 4.1 °F 59% 30.23 in 10.0 mi SW 18.4 mph - N/A   Clear
6:15 AM 16.5 °F 3.0 °F 5.0 °F 61% 30.22 in 10.0 mi SW 12.7 mph 19.6 mph N/A   Clear
6:35 AM 16.7 °F 2.0 °F 5.7 °F 62% 30.21 in 10.0 mi SW 15.0 mph - N/A   Clear
6:55 AM 16.7 °F 2.6 °F 5.9 °F 63% 30.21 in 10.0 mi SW 13.8 mph - N/A   Clear
7:15 AM 17.2 °F 3.3 °F 6.4 °F 63% 30.19 in 10.0 mi SW 13.8 mph - N/A   Clear
7:35 AM 16.5 °F 1.8 °F 6.4 °F 65% 30.16 in 10.0 mi SSW 15.0 mph - N/A   Clear
7:55 AM 16.9 °F 2.3 °F 6.8 °F 65% 30.14 in 10.0 mi SSW 15.0 mph - N/A   Clear
8:10 AM 17.8 °F 2.9 °F 7.3 °F 64% 30.13 in 10.0 mi SW 16.1 mph 21.9 mph N/A   Clear
8:35 AM 18.9 °F 4.3 °F 7.7 °F 62% 30.12 in 10.0 mi SW 16.1 mph 24.2 mph N/A   Clear
8:55 AM 20.5 °F 6.9 °F 8.6 °F 60% 30.12 in 10.0 mi SW 15.0 mph - N/A   Clear
9:15 AM 22.5 °F 8.0 °F 9.0 °F 56% 30.11 in 10.0 mi SW 18.4 mph 26.5 mph N/A   Clear
9:35 AM 23.9 °F 9.9 °F 9.1 °F 53% 30.11 in 10.0 mi SW 18.4 mph 26.5 mph N/A   Clear
9:55 AM 25.3 °F 11.8 °F 9.0 °F 50% 30.09 in 10.0 mi SW 18.4 mph 24.2 mph N/A   Clear
10:15 AM 26.6 °F 12.4 °F 8.8 °F 47% 30.09 in 10.0 mi WSW 21.9 mph 27.6 mph N/A   Clear
10:35 AM 28.6 °F 15.3 °F 9.1 °F 44% 30.09 in 10.0 mi WSW 20.7 mph 25.3 mph N/A   Clear
10:55 AM 30.7 °F 18.5 °F 9.3 °F 41% 30.07 in 10.0 mi WSW 19.6 mph 24.2 mph N/A   Clear
11:15 AM 32.0 °F 20.5 °F 9.1 °F 38% 30.07 in 10.0 mi WSW 18.4 mph - N/A   Mostly Cloudy
11:35 AM 33.3 °F 22.5 °F 9.5 °F 37% 30.05 in 10.0 mi WSW 17.3 mph - N/A   Scattered Clouds
11:55 AM 35.1 °F 25.2 °F 10.2 °F 36% 30.03 in 10.0 mi WSW 16.1 mph - N/A   Clear
12:15 PM 36.5 °F 27.4 °F 10.8 °F 35% 30.01 in 10.0 mi WSW 15.0 mph - N/A   Mostly Cloudy
12:35 PM 38.7 °F 29.8 °F 11.3 °F 33% 29.99 in 10.0 mi WSW 16.1 mph - N/A   Scattered Clouds
12:55 PM 40.5 °F 32.5 °F 12.2 °F 32% 29.97 in 10.0 mi WSW 15.0 mph - N/A   Scattered Clouds
1:15 PM 41.4 °F 33.3 °F 13.1 °F 32% 29.96 in 10.0 mi WSW 16.1 mph - N/A   Mostly Cloudy
1:35 PM 45.5 °F 38.9 °F 15.1 °F 29% 29.95 in 10.0 mi WSW 15.0 mph 18.4 mph N/A   Overcast
1:55 PM 45.0 °F 38.5 °F 15.6 °F 31% 29.91 in 10.0 mi WSW 13.8 mph 18.4 mph N/A   Scattered Clouds
2:15 PM 46.2 °F 40.1 °F 16.0 °F 30% 29.91 in 10.0 mi WSW 13.8 mph 20.7 mph N/A   Clear
2:35 PM 47.7 °F - 16.7 °F 29% 29.89 in 10.0 mi WSW 15.0 mph - N/A   Clear
2:55 PM 48.2 °F - 17.8 °F 30% 29.88 in 10.0 mi WSW 12.7 mph 18.4 mph N/A   Clear
3:15 PM 49.1 °F - 18.3 °F 30% 29.86 in 10.0 mi SW 11.5 mph - N/A   Scattered Clouds
3:35 PM 49.3 °F - 18.5 °F 30% 29.87 in 10.0 mi SW 13.8 mph - N/A   Scattered Clouds
3:55 PM 49.3 °F - 18.5 °F 30% 29.86 in 10.0 mi SW 11.5 mph - N/A   Mostly Cloudy
4:15 PM 49.5 °F - 19.4 °F 31% 29.86 in 10.0 mi WSW 9.2 mph - N/A   Overcast
4:35 PM 52.7 °F - 26.1 °F 36% 29.85 in 10.0 mi WNW 15.0 mph - N/A   Overcast
4:55 PM 52.9 °F - 25.3 °F 34% 29.85 in 10.0 mi West 13.8 mph - N/A   Overcast
5:15 PM 52.5 °F - 25.9 °F 36% 29.85 in 10.0 mi West 15.0 mph - N/A   Overcast
5:35 PM 51.4 °F - 26.1 °F 37% 29.83 in 10.0 mi West 12.7 mph 17.3 mph N/A   Overcast
5:55 PM 50.9 °F - 26.8 °F 39% 29.83 in 10.0 mi West 12.7 mph - N/A   Scattered Clouds
6:15 PM 50.9 °F - 28.0 °F 41% 29.82 in 10.0 mi West 15.0 mph 20.7 mph N/A   Mostly Cloudy
6:35 PM 50.9 °F - 28.2 °F 42% 29.82 in 10.0 mi West 13.8 mph - N/A   Overcast
6:55 PM 51.4 °F - 28.8 °F 42% 29.81 in 10.0 mi West 15.0 mph 21.9 mph N/A   Overcast
7:15 PM 52.0 °F - 29.3 °F 42% 29.80 in 10.0 mi West 15.0 mph 21.9 mph N/A   Overcast
7:35 PM 51.6 °F - 30.9 °F 45% 29.79 in 10.0 mi West 16.1 mph 20.7 mph N/A   Overcast
7:55 PM 52.0 °F - 30.0 °F 43% 29.78 in 10.0 mi West 15.0 mph 21.9 mph N/A   Overcast
8:15 PM 52.5 °F - 29.8 °F 42% 29.78 in 10.0 mi West 13.8 mph 20.7 mph N/A   Overcast
8:35 PM 52.5 °F - 29.8 °F 42% 29.77 in 10.0 mi WSW 16.1 mph - N/A   Overcast
8:55 PM 51.1 °F - 29.7 °F 44% 29.76 in 10.0 mi WSW 15.0 mph - N/A   Overcast
9:15 PM 51.6 °F - 29.7 °F 43% 29.76 in 10.0 mi West 12.7 mph 23.0 mph N/A   Overcast
9:35 PM 52.2 °F - 29.7 °F 42% 29.77 in 10.0 mi West 15.0 mph 21.9 mph N/A   Overcast
9:55 PM 52.2 °F - 30.2 °F 43% 29.77 in 10.0 mi WNW 19.6 mph 29.9 mph N/A   Mostly Cloudy
10:15 PM 52.5 °F - 31.1 °F 44% 29.77 in 10.0 mi WNW 19.6 mph 25.3 mph N/A   Scattered Clouds
10:35 PM 53.1 °F - 32.0 °F 45% 29.77 in 10.0 mi WNW 19.6 mph 26.5 mph N/A   Clear
10:55 PM 50.2 °F - 31.5 °F 49% 29.78 in 10.0 mi WNW 16.1 mph - N/A   Clear
11:15 PM 50.9 °F - 32.4 °F 49% 29.79 in 10.0 mi NW 21.9 mph 26.5 mph N/A   Clear
11:35 PM 48.9 °F - 32.4 °F 53% 29.80 in 10.0 mi NW 18.4 mph - N/A   Clear
11:55 PM 47.3 °F - 32.2 °F 56% 29.82 in 10.0 mi NW 16.1 mph - N/A   Scattered Clouds